Spokane Fairchild, WA
on Tuesday, December 25, 2012

Tuesday
Previous Day Next Day
Daily Summary
 ActualAverage (KGEG)Record (KGEG)
Temperature
Mean Temperature °F 26°F  
Max Temperature 30°F 32°F 53°F (1980)
Min Temperature 24°F 22°F -6°F (1964)
Degree Days
Heating Degree Days 38 38  
Month to date heating degree days 939  
Since 1 July heating degree days 2606  
Cooling Degree Days 0 0  
Month to date cooling degree days 0  
Year to date cooling degree days 450  
Moisture
Dew Point 28°F   
Average Humidity 100    
Maximum Humidity 100    
Minimum Humidity 99    
Precipitation
Precipitation 0.01 in 0.06 in 0.75 in (1907)
Month to date precipitation 1.90  
Year to date precipitation 16.16  
Snow
Snow 0.00 in 0.50 in 5.20 in (1998)
Month to date snowfall 11.4  
Since 1 July snowfall 18.9  
Snow Depth in   
Wind
Wind Speed 4 mph   
Max Wind Speed 10 mph   
Max Gust Speed mph   
Visibility 2 miles   
Events Fog , Rain , Snow   

Key: T is trace of precipitation, MM is missing value
Source: NWS Daily Summary
Time(PST)TemperatureDew PointHumidity Pressure Visibility Wind DirectionWind SpeedGust SpeedPrecipitationEvents Conditions
12:01 AM 26.6°F 26.6°F 100% 30.11 in 1.0 miles SE 2.3 mph - N/A   Mist
12:11 AM 26.6°F 26.6°F 100% 30.11 in 0.8 miles SE 2.3 mph - N/A   Mist
12:12 AM 26.6°F 26.6°F 100% 30.11 in 0.8 miles SE 2.3 mph - N/A   Mist
12:17 AM 26.6°F 26.6°F 100% 30.11 in 0.8 miles SSE 2.3 mph - N/A   Mist
12:22 AM 26.6°F 26.6°F 100% 30.11 in 0.5 miles Calm Calm - N/A Fog Light Freezing Fog
12:32 AM 26.6°F 26.6°F 100% 30.11 in 0.5 miles SSE 3.5 mph - N/A Fog Light Freezing Fog
12:41 AM 26.6°F 26.6°F 100% 30.11 in 0.5 miles ESE 2.3 mph - N/A Fog Light Freezing Fog
12:50 AM 26.6°F 26.6°F 100% 30.11 in 0.5 miles ESE 3.5 mph - N/A Fog Light Freezing Fog
12:58 AM 26.6°F 26.6°F 100% 30.20 in 0.5 miles ESE 3.5 mph - 0.00 in Fog Light Freezing Fog
1:03 AM 26.6°F 26.6°F 100% 30.11 in 0.8 miles SE 3.5 mph - N/A   Mist
1:08 AM 26.6°F 26.6°F 100% 30.12 in 0.5 miles SE 2.3 mph - N/A Fog Light Freezing Fog
1:13 AM 26.6°F 26.6°F 100% 30.12 in 0.8 miles SSE 3.5 mph - N/A   Mist
1:15 AM 26.6°F 26.6°F 100% 30.12 in 0.8 miles SSE 4.6 mph - N/A Rain Light Freezing Rain
1:25 AM 26.6°F 26.6°F 100% 30.12 in 0.5 miles SSE 5.8 mph - N/A Fog , Rain Light Freezing Rain
1:30 AM 26.6°F 26.6°F 100% 30.11 in 0.5 miles SSE 5.8 mph - N/A Fog , Rain Light Freezing Rain
1:45 AM 26.6°F 26.6°F 100% 30.11 in 0.5 miles SSE 5.8 mph - N/A Fog , Rain Light Freezing Rain
1:58 AM 26.6°F 26.6°F 100% 30.20 in 0.5 miles SSE 4.6 mph - 0.00 in Fog , Rain Light Freezing Rain
2:03 AM 26.6°F 26.6°F 100% 30.11 in 0.5 miles SSE 4.6 mph - N/A Fog , Rain Light Freezing Rain
2:08 AM 26.6°F 26.6°F 100% 30.11 in 0.5 miles SE 3.5 mph - N/A Fog , Rain Light Freezing Rain
2:13 AM 28.4°F 28.4°F 100% 30.10 in 0.5 miles SE 4.6 mph - N/A Fog , Rain Light Freezing Rain
2:28 AM 28.4°F 28.4°F 100% 30.10 in 0.5 miles ESE 2.3 mph - N/A Fog Light Freezing Fog
2:32 AM 28.4°F 28.4°F 100% 30.10 in 0.5 miles ESE 2.3 mph - N/A Fog Light Freezing Fog
2:34 AM 28.4°F 28.4°F 100% 30.10 in 0.2 miles ESE 3.5 mph - N/A Fog Light Freezing Fog
2:36 AM 28.4°F 28.4°F 100% 30.10 in 0.2 miles ESE 3.5 mph - N/A Fog Light Freezing Fog
2:40 AM 28.4°F 28.4°F 100% 30.10 in 0.2 miles East 2.3 mph - N/A Fog Light Freezing Fog
2:51 AM 28.4°F 28.4°F 100% 30.09 in 0.5 miles ESE 3.5 mph - N/A Fog Light Freezing Fog
2:52 AM 28.4°F 28.4°F 100% 30.09 in 0.5 miles East 5.8 mph - N/A Fog Light Freezing Fog
2:54 AM 28.4°F 28.4°F 100% 30.09 in 1.0 miles East 5.8 mph - N/A   Mist
2:55 AM 28.4°F 28.4°F 100% 30.09 in 1.0 miles East 5.8 mph - N/A   Mist
2:58 AM 28.0°F 28.0°F 100% 30.18 in 1.0 miles East 4.6 mph - N/A   Mist
3:01 AM 28.4°F 28.4°F 100% 30.09 in 1.0 miles East 5.8 mph - N/A   Mist
3:02 AM 28.4°F 28.4°F 100% 30.09 in 1.0 miles East 3.5 mph - N/A   Mist
3:04 AM 28.4°F 28.4°F 100% 30.09 in 1.0 miles East 3.5 mph - N/A   Mist
3:06 AM 28.4°F 28.4°F 100% 30.09 in 0.5 miles ESE 4.6 mph - N/A Fog , Rain Light Freezing Rain
3:16 AM 28.4°F 28.4°F 100% 30.09 in 0.8 miles SE 5.8 mph - N/A Rain Light Freezing Rain
3:26 AM 28.4°F 28.4°F 100% 30.08 in 0.5 miles ESE 5.8 mph - N/A Fog , Rain Light Freezing Rain
3:41 AM 28.4°F 28.4°F 100% 30.07 in 0.5 miles ESE 5.8 mph - N/A Fog , Rain Light Freezing Rain
3:56 AM 28.4°F 28.4°F 100% 30.08 in 0.8 miles ESE 5.8 mph - N/A   Light Freezing Drizzle
3:58 AM 27.9°F 27.9°F 100% 30.16 in 0.8 miles ESE 5.8 mph - 0.00 in   Light Freezing Drizzle
4:03 AM 28.4°F 28.4°F 100% 30.07 in 1.0 miles East 4.6 mph - N/A   Light Freezing Drizzle
4:08 AM 28.4°F 28.4°F 100% 30.07 in 0.8 miles ESE 3.5 mph - N/A   Light Freezing Drizzle
4:18 AM 26.6°F 26.6°F 100% 30.07 in 0.8 miles East 2.3 mph - N/A   Light Freezing Drizzle
4:23 AM 26.6°F 26.6°F 100% 30.06 in 0.5 miles East 2.3 mph - N/A Fog Light Freezing Drizzle
4:28 AM 26.6°F 26.6°F 100% 30.06 in 0.5 miles East 3.5 mph - N/A Fog Light Freezing Drizzle
4:33 AM 26.6°F 26.6°F 100% 30.06 in 0.5 miles ENE 3.5 mph - N/A Fog Light Freezing Drizzle
4:38 AM 26.6°F 26.6°F 100% 30.06 in 0.2 miles East 3.5 mph - N/A Fog Light Freezing Drizzle
4:58 AM 24.8°F 24.8°F 100% 30.14 in 0.2 miles ENE 5.8 mph - 0.00 in Fog Light Freezing Drizzle
5:03 AM 24.8°F 24.8°F 100% 30.05 in 0.2 miles ENE 5.8 mph - N/A Fog Light Freezing Drizzle
5:08 AM 24.8°F 24.8°F 100% 30.05 in 0.2 miles ENE 5.8 mph - N/A Fog Light Freezing Drizzle
5:58 AM 25.7°F 25.7°F 100% 30.13 in 0.2 miles ENE 3.5 mph - 0.00 in Fog , Rain Light Freezing Rain
6:58 AM 26.2°F 26.2°F 100% 30.09 in 0.2 miles ENE 6.9 mph - 0.00 in Fog Light Freezing Drizzle
7:08 AM 26.6°F 26.6°F 100% 30.00 in 0.2 miles ENE 5.8 mph - N/A Fog Light Freezing Drizzle
7:18 AM 26.6°F 26.6°F 100% 29.99 in 0.2 miles ENE 5.8 mph - N/A Fog Light Freezing Drizzle
7:58 AM 26.6°F 26.6°F 100% 30.06 in 0.2 miles NE 5.8 mph - 0.00 in Fog Light Freezing Drizzle
8:13 AM 26.6°F 26.6°F 100% 29.97 in 0.2 miles ENE 5.8 mph - N/A Fog Light Freezing Drizzle
8:18 AM 26.6°F 26.6°F 100% 29.97 in 0.2 miles ENE 8.1 mph - N/A Fog Light Freezing Drizzle
8:33 AM 26.6°F 26.6°F 100% 29.97 in 0.2 miles ENE 6.9 mph - N/A Fog Light Freezing Drizzle
8:53 AM 26.6°F 26.6°F 100% 29.96 in 0.5 miles ENE 6.9 mph - N/A Fog Light Freezing Drizzle
8:58 AM 27.0°F 27.0°F 100% 30.05 in 1.2 miles ENE 8.1 mph - 0.00 in   Light Freezing Drizzle
9:03 AM 26.6°F 26.6°F 100% 29.96 in 2.5 miles ENE 8.1 mph - N/A   Light Freezing Drizzle
9:13 AM 26.6°F 26.6°F 100% 29.96 in 3.0 miles ENE 8.1 mph - N/A   Light Freezing Drizzle
9:18 AM 26.6°F 26.6°F 100% 29.96 in 4.0 miles ENE 6.9 mph - N/A   Light Freezing Drizzle
9:26 AM 26.6°F 26.6°F 100% 29.95 in 9.0 miles ENE 6.9 mph - N/A   Overcast
9:58 AM 27.0°F 26.8°F 99% 30.04 in 10.0 miles ENE 6.9 mph - 0.00 in   Overcast
10:58 AM 28.4°F 28.4°F 100% 30.00 in 10.0 miles ENE 10.4 mph - N/A   Overcast
11:58 AM 28.4°F 28.4°F 100% 29.96 in 10.0 miles ENE 8.1 mph - N/A   Mostly Cloudy
12:58 PM 28.8°F 28.8°F 100% 29.92 in 10.0 miles ENE 5.8 mph - N/A   Mostly Cloudy
1:58 PM 28.8°F 28.8°F 100% 29.91 in 10.0 miles East 5.8 mph - N/A   Mostly Cloudy
2:58 PM 29.5°F 29.5°F 100% 29.90 in 10.0 miles ENE 3.5 mph - N/A   Overcast
3:58 PM 29.5°F 29.5°F 100% 29.89 in 10.0 miles SE 2.3 mph - N/A   Overcast
4:12 PM 30.2°F 30.2°F 100% 29.82 in 10.0 miles SE 3.5 mph - N/A   Overcast
4:37 PM 30.2°F 30.2°F 100% 29.81 in 10.0 miles SSE 5.8 mph - N/A   Overcast
4:52 PM 28.4°F 28.4°F 100% 29.81 in 7.0 miles SSE 4.6 mph - N/A Snow Light Snow
4:57 PM 28.4°F 28.4°F 100% 29.81 in 5.0 miles SSE 3.5 mph - N/A Snow Light Snow
4:58 PM 28.4°F 28.4°F 100% 29.90 in 5.0 miles SSE 3.5 mph - 0.00 in Snow Light Snow
5:23 PM 28.4°F 28.4°F 100% 29.81 in 5.0 miles SE 3.5 mph - N/A Snow Light Snow
5:38 PM 28.4°F 28.4°F 100% 29.81 in 2.5 miles East 2.3 mph - N/A Snow Light Snow
5:58 PM 28.8°F 28.8°F 100% 29.89 in 2.5 miles East 3.5 mph - 0.00 in Snow Light Snow
6:23 PM 28.4°F 28.4°F 100% 29.80 in 3.0 miles ESE 4.6 mph - N/A Snow Light Snow
6:28 PM 28.4°F 28.4°F 100% 29.79 in 3.0 miles East 5.8 mph - N/A Snow Light Snow
6:43 PM 28.4°F 28.4°F 100% 29.79 in 2.5 miles East 5.8 mph - N/A Snow Light Snow
6:58 PM 28.9°F 28.9°F 100% 29.87 in 2.5 miles ESE 5.8 mph - 0.00 in Snow Light Snow
7:03 PM 28.4°F 28.4°F 100% 29.79 in 3.0 miles East 5.8 mph - N/A Snow Light Snow
7:33 PM 28.4°F 28.4°F 100% 29.78 in 2.5 miles East 8.1 mph - N/A Snow Light Snow
7:44 PM 28.4°F 28.4°F 100% 29.78 in 2.5 miles East 6.9 mph - N/A Snow Light Snow
7:58 PM 29.1°F 29.1°F 100% 29.86 in 2.5 miles East 6.9 mph - 0.01 in Snow Light Snow
8:08 PM 28.4°F 28.4°F 100% 29.78 in 3.0 miles East 6.9 mph - N/A Snow Light Snow
8:28 PM 28.4°F 28.4°F 100% 29.78 in 3.0 miles East 5.8 mph - N/A Snow Light Snow
8:38 PM 28.4°F 28.4°F 100% 29.78 in 3.0 miles East 5.8 mph - N/A Snow Light Snow
8:48 PM 28.4°F 28.4°F 100% 29.78 in 3.0 miles East 5.8 mph - N/A Snow Light Snow
8:58 PM 28.4°F 28.4°F 100% 29.86 in 3.0 miles East 6.9 mph - 0.00 in Snow Light Snow
9:03 PM 28.4°F 28.4°F 100% 29.78 in 3.0 miles East 5.8 mph - N/A Snow Light Snow
9:08 PM 28.4°F 28.4°F 100% 29.78 in 3.0 miles East 6.9 mph - N/A Snow Light Snow
9:18 PM 28.4°F 28.4°F 100% 29.78 in 3.0 miles East 5.8 mph - N/A Snow Light Snow
9:28 PM 28.4°F 28.4°F 100% 29.78 in 3.0 miles East 4.6 mph - N/A Snow Light Snow
9:33 PM 28.4°F 28.4°F 100% 29.78 in 2.5 miles East 4.6 mph - N/A Snow Light Snow
9:43 PM 28.4°F 28.4°F 100% 29.78 in 3.0 miles East 5.8 mph - N/A   Overcast
9:53 PM 28.4°F 28.4°F 100% 29.78 in 3.0 miles ENE 4.6 mph - N/A   Overcast
9:58 PM 29.1°F 29.1°F 100% 29.86 in 3.0 miles NE 4.6 mph - 0.00 in   Overcast
10:18 PM 28.4°F 28.4°F 100% 29.77 in 3.0 miles ENE 5.8 mph - N/A   Overcast
10:34 PM 28.4°F 28.4°F 100% 29.78 in 3.0 miles ENE 5.8 mph - N/A   Overcast
10:44 PM 28.4°F 28.4°F 100% 29.78 in 4.0 miles ENE 6.9 mph - N/A   Overcast
10:58 PM 28.9°F 28.9°F 100% 29.86 in 5.0 miles ENE 5.8 mph - 0.00 in   Overcast
11:43 PM 28.4°F 28.4°F 100% 29.77 in 9.0 miles NE 4.6 mph - N/A   Overcast
11:58 PM 29.1°F 29.1°F 100% 29.85 in 10.0 miles ENE 5.8 mph - N/A   Overcast
Moon Phase
Dec. 25 Dec. 28 Jan. 04 Jan. 11 Jan. 18
Sunrise:07:37 AM (PST) Moon Rise:02:18 PM (PST)
Sunset:04:04 PM (PST) Moon Set:05:11 AM (PST)

Copyright © 2014 The Weather Underground, Inc.